RH
59 60 59 54 53 55 56 55 54 56 55 48 45 44 39 36 32 26 20 16 16 16 16 15 15 14 13 14 13 13 13 13 12 12 12 11 11 12 11 11 11 11
63 64 62 56 54 56 56 55 54 58 57 50 48 47 43 39 35 31 28 23 19 19 18 18 19 18 18 17 17 16 16 16 16 15 14 13 12 11 10 10 9 9
59 61 61 56 51 51 51 52 55 60 61 57 55 51 47 44 40 36 36 34 29 26 25 24 25 25 25 24 23 23 22 22 21 20 20 19 18 17 16 15 14 13
55 59 62 57 51 50 50 54 61 66 68 68 64 56 50 47 44 40 40 42 39 33 31 30 30 30 30 29 28 28 27 26 25 24 24 24 24 24 24 25 25 24
54 57 61 59 54 53 55 57 63 69 71 71 66 58 51 48 45 43 44 45 44 40 38 37 36 35 34 33 33 32 31 30 29 29 28 28 28 29 30 30 30 31
51 52 56 57 53 51 52 54 55 59 61 63 59 52 47 46 45 45 47 48 46 44 43 42 41 41 39 37 37 36 35 35 34 33 33 34 34 34 34 34 34 35
49 50 51 53 52 49 50 50 48 48 51 55 55 48 45 47 47 45 47 49 49 48 47 45 43 43 43 42 42 41 41 40 40 39 39 39 39 39 38 38 38 38
47 48 48 50 52 50 48 45 44 45 45 49 52 51 47 48 49 47 47 49 50 51 51 50 48 47 47 48 49 50 50 49 49 48 47 47 47 45 43 42 42 42
44 46 46 46 48 50 49 45 43 43 44 46 50 53 52 51 53 54 53 54 54 55 57 57 56 55 57 58 60 61 61 62 62 61 60 58 57 53 48 45 45 45
43 45 46 44 45 49 51 50 45 42 44 47 50 55 60 62 63 62 60 62 64 64 65 65 63 62 64 69 73 73 74 76 78 76 73 70 68 65 60 55 51 50
43 44 46 46 47 49 50 52 51 47 46 48 53 59 64 68 70 71 69 68 69 71 73 74 72 70 70 75 81 81 80 82 83 82 82 80 78 75 72 68 62 58
46 45 46 49 51 52 52 52 53 52 50 51 56 62 66 66 68 72 74 74 75 75 77 77 77 78 78 80 83 83 81 83 85 84 85 86 86 84 82 78 74 69
50 48 47 48 51 54 53 51 52 53 52 52 53 57 63 66 65 66 71 76 78 77 77 75 75 79 82 82 83 82 81 82 82 80 81 83 84 85 85 83 81 78
51 50 49 47 48 49 50 49 52 55 54 53 51 50 53 58 62 64 65 68 71 74 78 77 76 81 84 83 82 79 76 76 75 74 74 76 75 76 78 79 79 79
50 51 51 49 46 45 44 46 52 56 58 57 56 53 52 53 58 64 64 63 67 74 80 82 80 81 81 80 79 76 72 71 71 72 71 71 70 68 69 71 72 74
49 50 52 52 50 46 44 44 48 54 59 60 59 57 58 59 62 64 63 64 70 76 80 82 82 81 79 78 75 72 68 66 66 68 68 67 65 63 63 65 64 64
47 49 51 54 54 51 49 48 49 53 58 59 59 60 63 66 67 64 63 65 70 71 71 73 73 72 72 73 69 65 64 63 62 63 63 60 58 58 60 62 61 60
47 48 50 52 53 53 54 53 53 56 59 61 61 62 65 68 67 65 65 67 66 64 64 64 62 61 62 62 62 61 59 58 57 56 56 55 55 55 56 56 55 54
48 50 50 51 51 52 54 57 58 61 63 63 62 62 66 69 68 67 66 66 64 63 63 62 60 59 61 61 62 61 58 55 52 50 49 48 47 46 46 45 45 44
50 53 54 54 55 55 56 59 64 67 67 64 65 69 70 68 67 68 69 70 68 65 64 65 65 64 65 65 64 62 59 55 52 48 44 41 38 36 35 35 35 35
52 53 54 57 61 63 63 64 67 69 67 64 69 75 74 69 68 72 73 71 66 63 62 64 65 64 65 65 63 60 58 54 49 45 40 37 34 32 31 31 30 30
58 58 57 59 63 66 68 69 71 72 70 68 71 74 74 72 72 71 68 62 57 56 58 60 61 61 61 60 59 57 55 51 47 44 43 40 36 34 32 31 29 30
61 63 61 63 67 68 68 70 71 71 72 71 70 68 67 67 66 64 61 57 54 54 56 57 58 58 57 56 56 54 52 50 49 48 47 45 43 41 38 35 34 35
55 58 59 63 70 70 68 68 69 68 68 67 65 64 62 60 59 58 56 55 55 56 55 53 53 52 51 51 51 50 50 51 53 53 53 52 52 50 47 44 41 41
50 53 56 62 69 71 68 67 68 67 66 65 65 65 64 62 60 59 57 56 57 57 55 52 51 49 47 47 47 48 51 55 57 58 58 58 57 55 54 52 49 46
46 51 55 58 64 69 67 66 67 68 67 66 65 64 62 61 61 60 59 60 60 61 59 58 55 52 51 51 51 52 54 58 61 61 60 60 60 59 57 55 51 48